Content
SEND FEEDBACK

Daily
Averages
Monthly
Summary
United States of America

STATEN ISLAND, NEW YORK


Home > North America > United States > New York
Elevation: 152 feet     Latitude: 40 35N     Longitude: 074 09W

WEATHER
 
SELECT A DAY
Number of Records: 189,740;   Date Range: 1/1/95 - 8/12/14
 
SHARE

PRINT THIS DATA

[ ← Previous Day ]
WEATHER ALMANAC - APRIL 2, 2013
[ Next Day → ]
[ °C ]   °F
Weather ElementAverageHighLow
Temperature39.1 °F45 °F (4:51 pm)33.1 °F (4:51 am)
Dewpoint10.6 °F16 °F (10:51 am)6.1 °F (6:51 pm)
Humidity31.9 %42 % (7:51 am)22 % (4:51 pm)
Barometer30.00 in30.09 in (11:51 pm)29.94 in (3:51 am)
Wind Speed14.2 mph24.2 mph (5:51 pm)
Wind Gust33.4 mph (5:51 pm)
Weather ElementAverage
Visibility10 mi
Wind DirectionWNW (276.1 °)

Weather ElementTotal
Precipitation---
Heating Degree Days26 (Base 65)
Averaged from 23 records on April 2, 2013
WEATHER CONDITIONS BREAKOUT
WIND DIRECTION BREAKOUT
WEATHER BY HOUR - APRIL 2, 2013
[ °C ]   °F
Local TimeTemperatureDewpointHumidityBarometerVisibilityWind DirectionWind SpeedGust SpeedPrecipitationEventsConditions
1:51 AM35.6 °F12.2 °F38 %29.95 in10.0 miWNW (290°)10.4 mphClear
2:51 AM35.1 °F10.9 °F37 %29.95 in10.0 miWSW (250°)5.8 mphClear
3:51 AM33.8 °F12.2 °F41 %29.94 in10.0 miWest (270°)5.8 mphClear
4:51 AM33.1 °F10.9 °F40 %29.95 in10.0 miWest (260°)6.9 mphClear
5:51 AM33.1 °F10.9 °F40 %29.96 in10.0 miWest (280°)5.8 mphClear
6:51 AM33.1 °F10.9 °F40 %29.99 in10.0 miWest (270°)6.9 mphPartly Cloudy
7:51 AM34.0 °F12.9 °F42 %30.01 in10.0 miNW (310°)4.6 mphPartly Cloudy
8:51 AM37.4 °F15.8 °F41 %30.03 in10.0 miWest (280°)10.4 mphPartly Cloudy
9:51 AM37.9 °F15.1 °F39 %30.03 in10.0 miWNW (300°)15.0 mphScattered Clouds
10:51 AM39.9 °F16.0 °F38 %30.03 in10.0 miWNW (290°)17.3 mph26.5 mphScattered Clouds
11:51 AM39.9 °F12.0 °F32 %30.02 in10.0 miWest (280°)19.6 mph26.5 mphScattered Clouds
12:51 PM42.1 °F10.9 °F28 %30.01 in10.0 miWest (270°)21.9 mph27.6 mphScattered Clouds
1:51 PM43.0 °F9.0 °F25 %29.99 in10.0 miWNW (290°)18.4 mph28.8 mphScattered Clouds
2:51 PM44.6 °F8.6 °F23 %29.98 in10.0 miWNW (290°)21.9 mph27.6 mphScattered Clouds
3:51 PM44.6 °F8.6 °F23 %29.97 in10.0 miWest (260°)19.6 mph29.9 mphScattered Clouds
4:51 PM45.0 °F8.1 °F22 %29.97 in10.0 miWest (270°)23.0 mph29.9 mphScattered Clouds
5:51 PM44.1 °F7.0 °F22 %29.99 in10.0 miWest (270°)24.2 mph33.4 mphPartly Cloudy
6:51 PM43.0 °F6.1 °F22 %30.00 in10.0 miWest (280°)21.9 mph29.9 mphPartly Cloudy
7:51 PM42.8 °F6.8 °F23 %30.02 in10.0 miWest (260°)16.1 mphPartly Cloudy
8:51 PM41.0 °F8.1 °F26 %30.04 in10.0 miWest (260°)12.7 mphPartly Cloudy
9:51 PM39.9 °F9.0 °F28 %30.06 in10.0 miWest (270°)16.1 mphPartly Cloudy
10:51 PM39.0 °F10.0 °F30 %30.07 in10.0 miWest (260°)12.7 mphPartly Cloudy
11:51 PM37.0 °F10.9 °F34 %30.09 in10.0 miWNW (290°)10.4 mphPartly Cloudy
Hourly data recorded from KEWR, located miles away from Staten Island, New York







STORIES FROM OUR PARTNERS